Find Starlink 33761

NORAD ID: 63455 Int'l Des: 2025-069 Owner: SPXS Country: US Constellation: starlink operational
LEOCIRCULAR

現在のビュー

3D地球を読み込み中...

Starlink 33761について

説明を読み込み中...

次回通過

Passes for default location (London). Set your location on the main map for personalized predictions.

高度履歴

Loading altitude history...

軌道要素

1 63455U 25069Y 26149.91053757 .00061406 00000-0 14066-2 0 9990
2 63455 53.1597 122.0995 0000813 84.6831 275.4268 15.42216080 65885
Epoch: May 29, 2026 • Age: 16 hours

現在のステータス

高度 439.5 km
速度 7.65 km/s
衛星直下点 6.76°N, 34.39°E
打ち上げ日 Apr 4, 2025
運用期間 1.1 years
タイプ internet

技術仕様

分類 Payload
質量 575.00 kg
乾燥質量 530.00 kg
総質量 575.00 kg
長さ 0.30 m
直径 4.10 m
スパン 29.00 m
形状 Box + pan
製造者 SPXS
バスタイプ Starlink V2MO
フェーズステータス In Orbit
所有者/国 SPXS/US

Most Searched